Погода в Могоче

Погода в Могоче : погода сейчас, прогноз погоды и архив. Всё, что Вы хотите узнать о погоде в Могоче!

Хотите узнать прогноз погоды в Могоче? Тогда Вам сюда: Погода в Могоче

Поиск расширенной информации на нашем сайте:

Другие новости

Новости СМИ2

Главная страница сайта

Новости сайта

03.07.2017

Напоминаем, что на нашем специализированном сайте Метеоцентр.Азия вы можете получить высокодетализированные автоматические прогнозы погоды по пунктам России, СНГ и мира в авиационном формате (включающие направление и скорость ветра, видимость, явления погоды, количество и форму облачности, нижнюю и верхнюю границу облачности).

Рекомендуем: предлагаются помещения продажа офиса в БЦ Eurasia Tower в деловом центре Москва Сити

Погода в Могоче - сегодня

Время (UTC), дата Ветер
(°,м/с) 
Видим.   Явления Облачность Т
(°С)
Тd
(°С)
f(%) Тe
(°С)
Pmin
(гПа)
dP
(гПа)
Po
(мм)
O2
(г/м3)
Тmin Tmax R s Состояние
почвы
12 17.05.18 280 (З) 6{13}  20000 м    10/5 1000 м кучево-дожд., верхняя 
[Cb calv|Ci sp]
+16.4 -3.4 25 +16  1003.6  1.8  700  266    +22.6       
15 17.05.18 300 (СЗ) 20000 м    5/1 1000 м кучево-дожд., верхняя 
[Cb calv|Ci fib]
+10.3 -2.2 42 +10  1006.1  0.9  700  272           
18 17.05.18 290 (З) 20000 м    3/0 верхняя 
[Ci fib]
+4.3 -2.9 59 +3  1009.9  702  279           
21 17.05.18 310 (СЗ) 20000 м    1/0 верхняя 
[Ci fib]
+2.1 -3.2 68 +1  1012.1  1.5  703  281           
00 18.05.18 320 (СЗ) 20000 м    ясно 
+13 -3.8 31 +13  1010.2  0.8  704  271  +0.9        влажная 
03 18.05.18 230 (ЮЗ) 20000 м    ясно 
+18.8 -10.4 13 +20  1007.5  -1  703  266           
06 18.05.18 230 (ЮЗ) 20000 м    ясно 
+22.6 -9.7 11 +23  1004.7  -1.8  701  262           
09 18.05.18 180 (Ю) 20000 м    9/1 1000 м верхняя 
[Cu hum|Ci]
+22.9 -9.2 11 +23  1003  -1.3  701  261           
15 18.05.18 тихо ()   20000 м    10/8 1000 м кучево-дожд., верхняя 
[Cb calv|Ci fib]
+11 -2 40 +11  1005.4  -0.6  700  271           
18 18.05.18 140 (ЮВ) 20000 м    10/10 1000 м кучево-дожд. 
[Cb calv]
+9.3 -1.9 45 +9  1004.7  -1.1  699  273           
21 18.05.18 290 (З) 1{13}  20000 м    4/0 верхняя 
[Ci]
+7.9 -3 46 +9  1003.9  -1  698  274           
00 19.05.18 020 (С) 20000 м    ясно 
+18.6 -1.6 25 +20  1000.5  -0.6  698  263  +7.1        влажная 
12 19.05.18 300 (СЗ) 4{14}  20000 м  {гроза, ливн. осадки}  10/8 600 м кучево-дожд., верхняя 
[Cb calv|Cs]
+15.7 +5.3 50 +16  1003.7  700  266    +27.5  0.0     
15 19.05.18 320 (СЗ) н/о  слаб. ливневой дождь  10/10 600 м кучево-дожд. 
[Cb calv]
+14.8 +0.9 39 +15  1007.3  702  268           
21 19.05.18 010 (С) 20000 м    4/4 600 м кучево-дожд. 
[Cb calv]
+8.2 +0.9 60 +8  1014.6  2.6  706  276           
00 20.05.18 040 (СВ) 20000 м    3/0 верхняя 
[Ci fib]
+11.2 -3.2 36 +10  1015.6  1.7  707  274  +6.2    0.4    влажная 
03 20.05.18 040 (СВ) 20000 м    3/0 верхняя 
[Ci fib]
+15.1 -3.4 28 +15  1014.6  707  270           
06 20.05.18 070 (В) 20000 м    3/0 верхняя 
[Ci fib]
+19.3 -5.6 18 +20  1011.9  -1.5  706  266           
09 20.05.18 080 (В) 20000 м    3/0 верхняя 
[Ci fib]
+20 -8.4 14 +20  1010.5  -1.1  705  265           
15 20.05.18 270 (З) 20000 м    10/0 средняя, верхняя 
[Ac As|Cs]
+4.7 -3.2 57 +6  1016.1  0.6  706  280           
18 20.05.18 240 (ЮЗ) 20000 м    10/6 1000 м кучево-дожд., средняя 
[Cb calv|Ac As]
+3.2 -2.9 64 +4  1016  -0.5  706  281           
21 20.05.18 240 (ЮЗ) 20000 м    10/1 1000 м средняя, верхняя 
[Sc|Ac As|Cs]
+3.3 -2 68 +4  1014.3  -1.5  705  281           
00 21.05.18 100 (В) 20000 м    10/6 1000 м кучево-дожд., средняя, верхняя 
[Cb calv|Ac As|Cc]
+13.3 +4.2 54 +13  1009.4  -2.2  703  269  +2.6        влажная 
03 21.05.18 100 (В) 20000 м    10/9 600 м кучево-дожд., средняя 
[Cb cap|Ac As]
+17 +5.8 48 +17  1004  -3.9  700  265           
06 21.05.18 080 (В) 20000 м  в посл. час гроза{ливн. осадки}  10/9 600 м кучево-дожд., средняя 
[Cb cap|Ac As]
+14.9 +9.3 69 +18  1002.5  -1.9  699  265           
Время (UTC), дата Ветер
(°,м/с) 
Видим.   Явления Облачность Т
(°С)
Тd
(°С)
f(%) Тe
(°С)
Pmin
(гПа)
dP
(гПа)
Po
(мм)
O2
(г/м3)
Тmin Tmax R s Состояние
почвы

Для получения пояснительной информации подведите курсор к названию столбца.

ПОГОДА в Могоче - архив

Всё, что Вы хотите узнать о погоде в Могоче - удобно и подробно!

Выберите нужную дату (начиная с 1 января 2015* года) и нажмите кнопку "Найти".
Будут отображены архивные сводки погоды по пункту Могоча, начиная с указанной даты.


Отображать данные в формате CSV (для использования в таблицах Excel)


Внимание! Наш архив погоды предназначен исключительно для личного некоммерческого использования в познавательных целях. Если Вам необходимы официальные справки о состоянии погоды (для производственных, юридических, коммерческих и т.п. целей), обращайтесь в органы Росгидромета.

*Примечание: данная дата относится к архиву по метеостанциям СССР (Россия, СНГ, Балтия).
Архив по метеостанциям Зарубежной Европы и Азии (кроме Китая) хранится 10 дней, по другим регионам земного шара (Китай, Африка, Америка, Австралия, Океания) - 1 день.

Могоча - район местоположения метеостанции


Название, широта, долгота, высота метеостанции:
Могоча 53.8°ш. 119.7°д. 625 м над ур. моря [Российская Федерация]

Дополнительная информация

В oтличие oт бoльшинства пoгoдных сайтoв мы публикуем пoдрoбную метеoинфoрмацию в детальнoм прoфессиoнальнoм фoрмате.

Характеристики температуры и влажнoсти вoздуха измеряются на высoте 2 м в тени вдали oт зданий и деревьев.
Скoрoсть ветра измеряется на высoте 10 м (на урoвне рoста челoвека скoрoсть ветра ниже в 1.5-2 раза). Если метеoстанция нахoдится в гoрoде или в лесу, тo скoрoсть ветра занижена на 2-4 м/с пo сравнению с oткрытым местoм. Скoрoсть ветра над акватoриями крупных рек и oзёр, а также на вершинах хoлмoв на 2-5 м/с выше, чем в oбычных услoвиях.
Атмoсфернoе давление в разных тoчках местнoсти мoжет значительнo oтличаться oт давления на метеoстанции, в зависимoсти oт услoвий рельефа (при пoдъёме на 10 м давление пoнижается примернo на 1 мм рт.ст.).